Location: Catacaguana
(10.4120°N, 66.7591°W)
Time: 06:58:07
(UTC+00:00)

ARIANE 44L R/B - Pass Details

Date: 27 May 2022
Orbit: 330 x 33888 km, 7.1° (Epoch: 28 June)

Event Time Altitude Azimuth Distance (km) Brightness Sun altitude
Rises 09:30:39 0° 273° (W) 23,550 10.0 -8.4°
Reaches altitude 10° 10:23:09 10° 271° (W) 10,834 8.3 3.5°
Maximum altitude 10:47:39 53° 199° (SSW) 1,527 4.5 9.2°
Drops below altitude 10° 10:51:46 10° 119° (ESE) 2,063 5.9 10.1°
Sets 10:53:05 0° 113° (ESE) 2,631 6.6 10.4°
